This is the latest recevied weather packets stored in our database for station/object N7MLR. If no packets are shown the sender has not sent any weather packets the latest 10 day(s).
| Time | Temp. | Humidity | Pressure | Rain* | Wind** | Luminosity | Snow |
|---|---|---|---|---|---|---|---|
| 1777731590 | 15° C | 71% | 1021.7 hPa | 0 mm | - | 297 W/m² | - |
| 1777731288 | 15° C | 73% | 1021.8 hPa | 0 mm | - | 275 W/m² | - |
| 1777730985 | 15° C | 73% | 1021.6 hPa | 0 mm | - | 272 W/m² | - |
| 1777730683 | 14.44° C | 74% | 1021.5 hPa | 0 mm | - | 247 W/m² | - |
| 1777730379 | 14.44° C | 74% | 1021.8 hPa | 0 mm | - | 230 W/m² | - |
| 1777730075 | 14.44° C | 74% | 1021.7 hPa | 0 mm | - | 206 W/m² | - |
| 1777729772 | 14.44° C | 75% | 1021.7 hPa | 0 mm | - | 192 W/m² | - |
| 1777729469 | 13.89° C | 76% | 1021.5 hPa | 0 mm | - | 190 W/m² | - |
| 1777729166 | 13.89° C | 77% | 1021.6 hPa | 0 mm | - | 171 W/m² | - |
| 1777728862 | 13.89° C | 78% | 1021.5 hPa | 0 mm | - | 149 W/m² | - |
| 1777728560 | 13.33° C | 80% | 1021.6 hPa | 0 mm | - | 144 W/m² | - |
| 1777728256 | 12.78° C | 81% | 1021.3 hPa | 0 mm | - | 135 W/m² | - |
| 1777727954 | 12.78° C | 81% | 1021.3 hPa | 0 mm | - | 112 W/m² | - |
| 1777727650 | 12.78° C | 81% | 1021.1 hPa | 0 mm | - | 103 W/m² | - |
| 1777727348 | 12.22° C | 82% | 1021.2 hPa | 0 mm | - | 81 W/m² | - |
| 1777727045 | 12.22° C | 83% | 1021 hPa | 0 mm | - | 66 W/m² | - |
| 1777726741 | 11.67° C | 83% | 1021 hPa | 0 mm | - | 58 W/m² | - |
| 1777726439 | 11.11° C | 86% | 1021.2 hPa | 0 mm | - | 54 W/m² | - |
| 1777726130 | 11.11° C | 86% | 1021.1 hPa | 0 mm | - | 42 W/m² | - |
| 1777725827 | 10.56° C | 87% | 1020.6 hPa | 0 mm | - | 30 W/m² | - |
| 1777725524 | 10.56° C | 89% | 1020.4 hPa | 0 mm | - | 28 W/m² | - |
| 1777725221 | 10° C | 90% | 1020.6 hPa | 0 mm | - | 24 W/m² | - |
| 1777724919 | 10° C | 91% | 1020.4 hPa | 0 mm | - | 22 W/m² | - |
| 1777724614 | 9.44° C | 92% | 1020.4 hPa | 0 mm | - | 20 W/m² | - |
| 1777724313 | 9.44° C | 92% | 1020.3 hPa | 0 mm | - | 16 W/m² | - |
* Rain latest hour (hover to see other rain measurements)
** Current wind speed in m/s (hover to see current wind gust speed)